Effective Sunday, March 17, 2024, the National Weather Service National Data Buoy Center will discontinue its Dial-A-Buoy Interactive Voice Response system. For more information, see Service Change Notice 24-06 (PDF).

Station KPTV2 - 8632200 - Kiptopeke, VA Image indicating link to RSS feed of recent meteorological observations for station KPTV2


Conditions at KPTV2 as of
(2:18 pm EST)
1918 GMT on 03/03/2024:
     

Click on the graph icon in the table below to see a time series plot of the last five days of that observation.

5-day plot - Wind Direction Wind Direction (WDIR):WSW ( 240 deg true )
5-day plot - Wind Speed Wind Speed (WSPD): 1.9 kts
5-day plot - Wind Gust Wind Gust (GST): 2.9 kts
5-day plot - Atmospheric Pressure Atmospheric Pressure (PRES):30.25 in
5-day plot - Wind Speed at 10 Meters Wind Speed at 10 meters (WSPD10M): 1.9 kts
5-day plot - Wind Speed at 20 Meters Wind Speed at 20 meters (WSPD20M): 1.9 kts
5-day plot -  Wind Speed, Wind Gust and Atmospheric Pressure Combined plot of Wind Speed, Gust, and Air Pressure
NOS Water Level Observation Network Water Level
Previous observations
TIME
(EST)
5-day plot - Wind Direction
WDIR
 
5-day plot - Wind Speed
WSPD
kts
5-day plot - Wind Gust
GST
kts
5-day plot - Wave Height
WVHT
ft
5-day plot - Dominant Wave Period
DPD
sec
5-day plot - Average Wave Period
APD
sec
5-day plot - Mean Wave Direction
MWD
 
5-day plot - Atmospheric Pressure
PRES
in
5-day plot - Pressure Tendency
PTDY
in
5-day plot - Air Temperature
ATMP
°F
5-day plot - Water Temperature
WTMP
°F
5-day plot - Dew Point
DEWP
°F
5-day plot - Salinity
SAL
psu
5-day plot - Visibility
VIS
nmi
5-day plot - Tide (above MLLW)
TIDE
ft
2024-03-03 02:12 pm W 1.9 4.1----30.25-------
2024-03-03 02:06 pmWSW 2.9 4.1----30.26-------
2024-03-03 02:00 pm W 2.9 4.1----30.25-0.04- 49.5----
2024-03-03 01:54 pmNNW 1.9 2.9----30.25-- 49.5----
2024-03-03 01:48 pm--------- 51.8-----
2024-03-03 01:42 pm--------- 52.2-----
2024-03-03 01:36 pm--------- 51.4-----
2024-03-03 01:30 pmWNW 2.9 4.1----30.26- 51.4 49.1----
2024-03-03 01:24 pm NW 2.9 4.1----30.26- 51.3 48.9----
2024-03-03 01:18 pm NW 2.9 4.1----30.26- 51.3 48.9----
2024-03-03 01:12 pmNNW 4.1 4.1----30.26- 51.3 48.9----
2024-03-03 01:06 pm NW 4.1 5.1----30.27- 51.1 48.9----
2024-03-03 01:00 pm NW 4.1 5.1----30.27-0.03 50.9 48.9----
2024-03-03 12:54 pm NW 4.1 5.1----30.27- 50.7 48.9----
2024-03-03 12:48 pmWNW 4.1 5.1----30.27- 50.7 48.9----
2024-03-03 12:42 pm NW 4.1 6.0----30.27- 50.5 48.7----
2024-03-03 12:36 pm NW 5.1 6.0----30.27- 50.7 48.7----
2024-03-03 12:30 pm NW 5.1 6.0----30.27- 50.4 48.7----
2024-03-03 12:24 pmWNW 4.1 5.1----30.28- 50.7 48.7----
2024-03-03 12:18 pmNNW 5.1 7.0----30.28-- 48.7----
2024-03-03 12:12 pmNNW 6.0 7.0----30.27-- 48.7----
2024-03-03 12:06 pmNNW 5.1 5.1----30.28-- 48.7----
2024-03-03 12:00 pmNNW 4.1 5.1----30.28-- 48.7----
2024-03-03 11:54 am NW 4.1 5.1----30.29-- 48.7----
2024-03-03 11:48 amNNW 5.1 6.0----30.29- 50.7 48.6----
2024-03-03 11:42 amNNW 6.0 7.0----30.29- 50.5 48.6----
2024-03-03 11:36 am NW 5.1 6.0----30.29- 50.4 48.6----
2024-03-03 11:30 am NW 4.1 5.1----30.29- 50.5 48.6----
2024-03-03 11:24 amNNW 5.1 8.0----30.29- 50.9 48.6----
2024-03-03 11:18 amWNW 8.9 8.9----30.30- 49.8 48.4----
2024-03-03 11:12 am NW 5.1 6.0----30.30- 50.5 48.4----
2024-03-03 11:06 amWNW 5.1 6.0----30.30- 50.9 48.4----
2024-03-03 11:00 am E 4.1 8.9----30.30+0.03 57.9 48.4----
2024-03-03 10:54 am E 5.1 8.0----30.29- 57.7 48.2----
2024-03-03 10:48 am E 6.0 9.9----30.29- 57.6 48.2----
2024-03-03 10:42 amESE 2.9 9.9----30.30- 57.7 48.2----
2024-03-03 10:36 am SE 8.0 9.9----30.30- 55.8 48.0----
2024-03-03 10:30 amESE 4.1 9.9----30.30- 56.8 48.0----
2024-03-03 10:24 am SE 5.1 8.0----30.30- 56.7 48.0----
2024-03-03 10:18 amESE 5.1 8.0----30.30- 56.5 48.0----
2024-03-03 10:12 am E 8.0 9.9----30.30- 55.2 47.8----
2024-03-03 10:06 am NW 1.9 4.1----30.30- 51.4 47.8----
2024-03-03 10:00 amWSW 1.9 4.1----30.30+0.07 50.4 47.8----
2024-03-03 09:54 am W 4.1 4.1----30.30- 49.8 47.8----
2024-03-03 09:48 amWNW 2.9 4.1----30.29- 50.7 47.8----
2024-03-03 09:42 amNNW 1.0 4.1----30.29- 51.8 47.8----
2024-03-03 09:36 am NW 1.9 4.1----30.30- 50.4 47.8----
2024-03-03 09:30 amWNW 2.9 4.1----30.29-------
2024-03-03 09:24 am NW 2.9 4.1----30.29-------
2024-03-03 09:18 am NW 4.1 4.1----30.29-- 47.8----
2024-03-03 09:12 amNNW 4.1 5.1----30.29-- 47.8----
2024-03-03 09:06 am NW 2.9 2.9----30.29-- 47.8----
2024-03-03 09:00 amNNW 1.9 1.9------ 49.6 47.8----
2024-03-03 08:54 am NW 1.9 2.9------ 49.6 47.8----
2024-03-03 08:48 am NW 2.9 2.9----30.28-- 47.8----
2024-03-03 08:42 am W 1.0 1.9----30.28-- 47.8----
2024-03-03 08:36 am- 0.0 1.9----30.28-- 47.8----
2024-03-03 08:30 am W 1.9 2.9----30.28-- 47.8----
2024-03-03 08:24 am- 0.0 1.0----30.27-- 47.8----
2024-03-03 08:18 am NW 1.0 1.9----30.27- 49.3 47.8----
2024-03-03 08:12 am W 2.9 4.1----30.27- 48.4 47.8----
2024-03-03 08:06 amWSW 2.9 4.1----30.27- 48.4 47.8----
2024-03-03 08:00 am SW 4.1 5.1----30.27+0.05 48.0-----
2024-03-03 07:54 am SW 4.1 5.1----30.27- 48.0-----
2024-03-03 07:48 amSSW 5.1 5.1----30.27-- 47.8----
2024-03-03 07:42 am S 5.1 5.1----30.26-- 47.8----
2024-03-03 07:36 am S 4.1 4.1----30.26-- 47.8----
2024-03-03 07:30 am---------- 47.8----
2024-03-03 07:24 am---------- 47.8----
2024-03-03 07:18 am N 2.9 4.1----30.24- 48.9 47.8----
2024-03-03 07:12 am N 2.9 5.1----30.24- 48.7 47.8----
2024-03-03 07:06 amNNE 4.1 6.0----30.24- 47.8 47.8----
2024-03-03 07:00 am N 5.1 6.0----30.23+0.03 48.0 47.8----
2024-03-03 06:54 am N 4.1 6.0----30.23- 47.8 47.8----
2024-03-03 06:48 am N 6.0 6.0----30.23- 47.5 47.8----
2024-03-03 06:42 am N 6.0 6.0----30.23- 47.3 47.8----
2024-03-03 06:36 amNNE 5.1 6.0----30.23- 46.8 47.8----
2024-03-03 06:30 am N 4.1 5.1----30.23- 46.8 47.8----
2024-03-03 06:24 am N 4.1 4.1----30.23- 46.6 47.8----
2024-03-03 06:18 amNNE 4.1 4.1----30.24- 45.9 47.8----
2024-03-03 06:12 am N 2.9 4.1----30.24- 46.4 47.8----
2024-03-03 06:06 amWNW 1.0 4.1----30.24- 47.1 47.7----
2024-03-03 06:00 am SW 4.1 4.1----30.24+0.04- 47.7----
2024-03-03 05:54 amSSE 1.0 1.9----30.24-- 47.7----
2024-03-03 05:48 am SE 1.9 1.9----30.24- 46.2 47.7----
2024-03-03 05:42 am- 0.0 2.9----30.23- 47.5 47.7----
2024-03-03 05:36 am N 2.9 5.1----30.23- 47.7 47.7----
2024-03-03 05:30 am N 5.1 6.0----30.22- 47.7 47.7----
2024-03-03 05:24 amNNE 5.1 6.0----30.22- 47.1 47.7----
2024-03-03 05:18 am N 5.1 5.1----30.22- 47.7 47.7----
2024-03-03 05:12 amNNE 4.1 4.1----30.22- 47.3 47.7----
2024-03-03 05:06 amNNE 1.9 4.1----30.22- 46.8 47.7----
2024-03-03 05:00 amNNE 4.1 4.1----30.22+0.02 46.9 47.7----
2024-03-03 04:54 amNNW 1.0 1.9----30.22- 46.9 47.7----
2024-03-03 04:48 am-------30.22- 46.6 47.7----
2024-03-03 04:42 am- 0.0 1.0----30.22- 46.2 47.7----
2024-03-03 04:36 am- 0.0 1.0----30.22- 45.7 47.7----
2024-03-03 04:30 am- 0.0 1.9----30.21- 46.8 47.7----
2024-03-03 04:24 am W 1.0 1.9----30.21- 46.8 47.7----
2024-03-03 04:18 am NW 1.0 1.0----30.21- 46.8 47.5----
2024-03-03 04:12 am-------30.21- 46.8 47.5----
2024-03-03 04:06 am-------30.21- 47.1 47.5----
2024-03-03 04:00 am N 1.0 1.9----30.20+0.01 47.5 47.5----
2024-03-03 03:54 amNNE 1.9 1.9----30.20- 47.3 47.5----
2024-03-03 03:48 amNNE 1.9 1.9----30.20- 47.1 47.5----
2024-03-03 03:42 amNNE 1.9 1.9----30.20- 47.1 47.5----
2024-03-03 03:36 amNNE 1.9 4.1----30.20- 46.8 47.5----
2024-03-03 03:30 am N 4.1 4.1----30.20- 46.4 47.5----
2024-03-03 03:24 am N 2.9 2.9----30.20- 47.1 47.5----
2024-03-03 03:18 amNNE 1.9 2.9----30.20- 47.1 47.5----
2024-03-03 03:12 amNNE 1.9 2.9----30.20- 47.1 47.5----
2024-03-03 03:06 am N 2.9 2.9----30.20- 47.7 47.5----
2024-03-03 03:00 amNNE 1.9 1.9----30.20+0.02 46.9 47.5----
2024-03-03 02:54 am N 1.9 1.9----30.20- 47.3 47.5----
2024-03-03 02:48 amENE 1.9 1.9----30.20- 47.7 47.5----
2024-03-03 02:42 am N 1.9 2.9----30.20- 47.5 47.5----
2024-03-03 02:36 am N 2.9 2.9----30.20- 47.8 47.5----
2024-03-03 02:30 am- 0.0 1.0----30.20- 47.7 47.7----
2024-03-03 02:24 amNNE 1.0 1.9----30.20- 46.8 47.7----
2024-03-03 02:18 am-------30.20- 47.1 47.7----
2024-03-03 02:12 am- 0.0 1.9----30.20- 48.2 47.7----
2024-03-03 02:06 amNNE 1.9 1.9----30.19- 48.4 47.7----
2024-03-03 02:00 amNNE 1.9 1.9----30.19+0.03 48.4 47.7----
2024-03-03 01:54 am NE 1.0 1.0----30.20- 48.2 47.7----
2024-03-03 01:48 am NE 1.0 1.9----30.19- 48.4 47.8----
2024-03-03 01:42 amNNE 1.9 1.9----30.19- 48.6 47.8----
2024-03-03 01:36 amNNE 1.9 1.9----30.20- 48.6 47.8----
2024-03-03 01:30 amNNE 2.9 2.9----30.19- 48.6 47.8----
2024-03-03 01:24 am N 2.9 4.1----30.19- 48.7 47.8----
2024-03-03 01:18 amNNE 4.1 4.1----30.19- 48.9 47.8----
2024-03-03 01:12 amNNE 4.1 4.1----30.19- 48.9 48.0----
2024-03-03 01:06 amNNE 4.1 4.1----30.19- 49.1 48.0----
2024-03-03 01:00 am N 4.1 5.1----30.19+0.03 49.1 48.0----
2024-03-03 12:54 am N 5.1 6.0----30.19- 49.3 48.0----
2024-03-03 12:48 amNNE 5.1 6.0----30.19- 49.5 48.0----
2024-03-03 12:42 amNNE 4.1 6.0----30.19- 49.5 48.2----
2024-03-03 12:36 amNNE 4.1 6.0----30.19- 49.5 48.2----
2024-03-03 12:30 amNNE 5.1 7.0----30.19- 49.6 48.2----
2024-03-03 12:24 amNNE 6.0 8.0----30.18- 49.8 48.2----
2024-03-03 12:18 am N 6.0 8.0----30.18- 50.0 48.2----
2024-03-03 12:12 am N 8.0 8.9----30.18- 50.2 48.2----
2024-03-03 12:06 am N 7.0 8.9----30.18- 50.2 48.2----
2024-03-03 12:00 am N 7.0 9.9----30.18+0.02 50.4 48.2----
2024-03-02 11:54 pm N 8.0 9.9----30.18- 50.5 48.2----
2024-03-02 11:48 pm N 8.0 8.9----30.17- 50.5 48.4----
2024-03-02 11:42 pm N 7.0 8.9----30.17- 50.7 48.4----
2024-03-02 11:36 pm N 7.0 9.9----30.17- 50.7 48.4----
2024-03-02 11:30 pm N 8.0 9.9----30.17- 50.9 48.4----
2024-03-02 11:24 pm N 8.9 12.0----30.17- 51.1 48.4----
2024-03-02 11:18 pm N 9.9 12.0----30.16- 51.3 48.4----
2024-03-02 11:12 pm N 11.1 14.0----30.16- 51.3 48.4----
2024-03-02 11:06 pm N 9.9 14.0----30.16- 51.4 48.4----
2024-03-02 11:00 pm N 9.9 12.0----30.16+0.02 51.4 48.4----
2024-03-02 10:54 pm N 12.0 14.0----30.16- 51.4 48.4----
2024-03-02 10:48 pm N 12.0 15.0----30.16- 51.3 48.4----
2024-03-02 10:42 pm N 11.1 12.0----30.16- 51.3 48.4----
2024-03-02 10:36 pm N 8.0 9.9----30.16- 51.4 48.4----
2024-03-02 10:30 pm N 7.0 11.1----30.16- 51.4 48.4----
2024-03-02 10:24 pm N 8.9 12.0----30.16- 51.6 48.4----
2024-03-02 10:18 pm N 9.9 12.0----30.16- 51.6 48.6----
2024-03-02 10:12 pm N 8.9 11.1----30.16- 51.6 48.6----
2024-03-02 10:06 pm N 8.9 12.0----30.16- 51.6 48.6----
2024-03-02 10:00 pm N 11.1 13.0----30.17+0.05 51.4 48.6----
2024-03-02 09:54 pm N 12.0 13.0----30.17- 51.4 48.7----
2024-03-02 09:48 pm N 13.0 14.0----30.17- 51.4 48.7----
2024-03-02 09:42 pm N 12.0 14.0----30.17- 51.4 48.7----
2024-03-02 09:36 pm N 12.0 12.0----30.17- 51.3 48.7----
2024-03-02 09:30 pm N 12.0 13.0----30.16- 51.3 48.7----
2024-03-02 09:24 pm N 11.1 13.0----30.16- 51.3 48.7----
2024-03-02 09:18 pm N 11.1 12.0----30.16- 51.1 48.7----
2024-03-02 09:12 pm N 9.9 12.0----30.16- 51.1 48.6----
2024-03-02 09:06 pm N 11.1 12.0----30.16- 51.3 48.6----
2024-03-02 09:00 pm N 9.9 11.1----30.16+0.05 51.3 48.6----
2024-03-02 08:54 pm N 9.9 11.1----30.16- 51.4 48.6----
2024-03-02 08:48 pm N 9.9 11.1----30.16- 51.4 48.6----
2024-03-02 08:42 pm N 9.9 12.0----30.16- 51.8 48.6----
2024-03-02 08:36 pm N 12.0 13.0----30.16- 51.8 48.6----
2024-03-02 08:30 pm N 9.9 11.1----30.15- 51.8 48.6----
2024-03-02 08:24 pm N 11.1 13.0----30.15- 52.2 48.6----
2024-03-02 08:18 pm N 12.0 14.0----30.15- 52.5 48.4----
2024-03-02 08:12 pm N 12.0 14.0----30.15- 52.5 48.4----
2024-03-02 08:06 pm N 13.0 15.0----30.15- 52.7 48.4----
2024-03-02 08:00 pm N 13.0 15.0----30.14+0.05 52.9 48.4----
2024-03-02 07:54 pm N 12.0 14.0----30.14- 53.1 48.2----
2024-03-02 07:48 pm N 12.0 14.0----30.14- 53.2 48.2----
2024-03-02 07:42 pm N 12.0 15.0----30.14- 53.4 48.2----
2024-03-02 07:36 pm N 13.0 15.0----30.14- 53.8 48.2----
2024-03-02 07:30 pm N 12.0 14.0----30.13- 53.8 48.2----
2024-03-02 07:24 pm N 12.0 15.0----30.13- 54.7 48.0----
2024-03-02 07:18 pm N 9.9 13.0----30.13- 54.7 48.0----
2024-03-02 07:12 pm N 12.0 14.0----30.13- 55.0 48.0----
2024-03-02 07:06 pm N 12.0 14.0----30.12- 55.0 48.0----
2024-03-02 07:00 pm N 12.0 15.0----30.12+0.03 55.4 48.0----
2024-03-02 06:54 pm N 11.1 13.0----30.12- 55.6 48.0----
2024-03-02 06:48 pm N 11.1 14.0----30.12-- 48.0----
2024-03-02 06:42 pm N 11.1 14.0----30.12-- 47.8----
2024-03-02 06:36 pm N 11.1 13.0----30.12-- 47.8----
2024-03-02 06:30 pm N 8.0 11.1----30.12- 54.5 47.8----
2024-03-02 06:24 pm N 8.0 11.1----30.12- 51.4 47.8----
2024-03-02 06:00 pm N 11.1 12.0----30.11- 53.6 47.8----
2024-03-02 05:54 pm N 9.9 9.9----30.11- 53.1 47.7----
2024-03-02 05:48 pm N 11.1 12.0----30.11- 52.9 47.7----
2024-03-02 05:42 pm N 9.9 11.1----30.11- 52.9 47.7----
2024-03-02 05:36 pm N 8.0 8.0----30.11- 53.4 47.7----
2024-03-02 05:30 pm N 5.1 6.0----30.11-- 47.7----
2024-03-02 05:24 pm N 5.1 6.0----30.10-- 47.7----
2024-03-02 05:18 pm N 6.0 6.0----30.10-- 47.7----
2024-03-02 05:12 pm N 6.0 6.0----30.10-- 47.7----
2024-03-02 05:06 pm N 5.1 6.0----30.10-- 47.7----
2024-03-02 05:00 pm N 4.1 5.1----30.10+0.00 54.9 47.7----
2024-03-02 04:54 pm N 5.1 5.1----30.09- 54.9 47.7----
2024-03-02 04:48 pm N 5.1 5.1----30.09- 55.9 47.7----
2024-03-02 04:42 pm N 4.1 4.1----30.09- 56.1 47.7----
2024-03-02 04:36 pm N 4.1 4.1----30.09- 56.3 47.7----
2024-03-02 04:30 pm N 2.9 4.1----30.09- 56.5-----
2024-03-02 04:24 pm N 1.9 2.9----30.09- 57.0-----
2024-03-02 04:18 pmNNW 2.9 2.9----30.09- 54.9 47.8----
2024-03-02 04:12 pmNNW 2.9 2.9----30.10- 55.0 47.8----
2024-03-02 04:06 pmNNW 1.9 2.9----30.10- 55.6 47.8----
2024-03-02 04:00 pm NW 1.9 2.9----30.09-0.01 55.8 47.8----
2024-03-02 03:54 pmWNW 2.9 2.9----30.09- 54.9 47.8----
2024-03-02 03:48 pmWNW 1.9 2.9----30.09-- 47.8----
2024-03-02 03:42 pmNNW 1.9 2.9----30.09-- 47.8----
2024-03-02 03:36 pmNNW 1.0 2.9----30.09-- 47.8----
2024-03-02 03:30 pm- 0.0 1.9----30.09- 57.9 47.8----
2024-03-02 03:24 pm S 1.0 1.0----30.09- 57.0 47.8----
2024-03-02 03:18 pm S 1.0 1.9----30.09- 56.5 47.8----
2024-03-02 03:12 pm- 0.0 1.9----30.09- 55.6 47.8----
2024-03-02 03:06 pm SE 1.0 1.9----30.09- 56.5 47.8----
2024-03-02 03:00 pm--------- 57.2-----
2024-03-02 02:54 pm--------- 58.3-----
2024-03-02 02:48 pm- 0.0 1.0----30.10- 56.5 47.8----
2024-03-02 02:42 pm-------30.10- 55.9 47.8----
2024-03-02 02:36 pm- 0.0 1.9----30.10- 55.2 47.8----
2024-03-02 02:30 pm- 0.0 1.0----30.10- 54.7 47.8----
2024-03-02 02:24 pm S 1.9 2.9----30.10- 54.1 47.8----
2024-03-02 02:18 pmNNW 2.9 4.1----30.10- 52.5 47.8----
2024-03-02 02:12 pm- 0.0 5.1----30.10- 52.7 47.8----
2024-03-02 02:06 pm S 5.1 8.0----30.10- 52.2 47.8----
2024-03-02 02:00 pm S 7.0 8.0----30.10-0.03 52.7 47.8----
2024-03-02 01:54 pmSSW 4.1 7.0----30.10- 52.5 47.8----